Martha's Vineyard, MA

7:23 PM EDT on August 20, 2017 (GMT -0400)
Martha's Vineyard

Weather History for KMVY - October, 2013

Change the Weather History Date:

Wednesday, October 9, 2013

  Actual Average Record
Temperature  
Mean Temperature 59 °F -  
Max Temperature 64 °F 64 °F 84 °F (2011)
Min Temperature 55 °F 46 °F 27 °F (2001)
Degree Days  
Heating Degree Days 6    
Growing Degree Days 9 (Base 50)    
Moisture  
Dew Point 44 °F    
Average Humidity 60    
Maximum Humidity 75    
Minimum Humidity 52    
Precipitation  
Precipitation 0.00 in - - ()
Sea Level Pressure  
Sea Level Pressure 30.37 in    
Wind  
Wind Speed 14 mph (ENE)    
Max Wind Speed 20 mph    
Max Gust Speed 31 mph    
Visibility 10 miles    
Events      
Averages and records for this station are not official NWS values.
T = Trace of Precipitation, MM = Missing Value Source: NWS Daily Summary

Daily Weather History Graph

Daily Weather History Graph

Search for Another Location

Airport or City:

Trip Planner

Search our weather history database for the weather conditions in past years. The results will help you decide how hot, cold, wet, or windy it might be!

Date:

Astronomy

Oct. 09, 2013 Rise Set
Actual Time 6:47 AM EDT 6:10 PM EDT
Civil Twilight 6:20 AM EDT 6:38 PM EDT
Nautical Twilight 5:48 AM EDT 7:10 PM EDT
Astronomical Twilight 5:16 AM EDT 7:42 PM EDT
Moon 11:42 AM EDT (10/9) 9:39 PM EDT (10/9)
Length of Visible Light 12h 18m
Length of Day
11h 22m
Waxing Crescent, 25% of the Moon is Illuminated
Oct 9
Waxing Crescent
Oct 11
First Quarter
Oct 18
Full
Oct 26
Last Quarter
Nov 3
New

Hourly Weather History & Observations

Time (EDT) Temp. Dew Point Humidity Pressure Visibility Wind Dir Wind Speed Gust Speed Precip Events Conditions
12:53 AM 57.0 °F 42.1 °F 57% 30.34 in 10.0 mi NE 8.1 mph 18.4 mph N/A   Clear
1:53 AM 57.0 °F 43.0 °F 59% 30.35 in 10.0 mi ENE 12.7 mph 20.7 mph N/A   Clear
2:53 AM 57.0 °F 42.1 °F 57% 30.35 in 10.0 mi ENE 19.6 mph 23.0 mph N/A   Clear
3:53 AM 55.9 °F 41.0 °F 57% 30.35 in 10.0 mi NE 15.0 mph 20.7 mph N/A   Clear
4:53 AM 55.9 °F 42.1 °F 60% 30.36 in 10.0 mi NE 12.7 mph 23.0 mph N/A   Clear
5:53 AM 55.9 °F 43.0 °F 62% 30.35 in 10.0 mi ENE 13.8 mph 23.0 mph N/A   Clear
6:53 AM 55.9 °F 43.0 °F 62% 30.37 in 10.0 mi NE 15.0 mph 21.9 mph N/A   Mostly Cloudy
7:53 AM 57.9 °F 44.1 °F 60% 30.38 in 10.0 mi NE 19.6 mph 24.2 mph N/A   Mostly Cloudy
8:53 AM 60.1 °F 45.0 °F 57% 30.40 in 10.0 mi East 16.1 mph 23.0 mph N/A   Mostly Cloudy
9:53 AM 62.1 °F 45.0 °F 53% 30.40 in 10.0 mi ENE 18.4 mph 31.1 mph N/A   Scattered Clouds
10:53 AM 63.0 °F 45.0 °F 52% 30.40 in 10.0 mi ENE 19.6 mph 29.9 mph N/A   Mostly Cloudy
11:53 AM 62.1 °F 45.0 °F 53% 30.41 in 10.0 mi East 18.4 mph 26.5 mph N/A   Mostly Cloudy
12:53 PM 63.0 °F 45.0 °F 52% 30.40 in 10.0 mi ENE 19.6 mph 27.6 mph N/A   Clear
1:53 PM 63.0 °F 45.0 °F 52% 30.38 in 10.0 mi ENE 17.3 mph - N/A   Clear
2:53 PM 61.0 °F 45.0 °F 56% 30.38 in 10.0 mi ENE 19.6 mph 25.3 mph N/A   Clear
3:53 PM 61.0 °F 45.0 °F 56% 30.38 in 10.0 mi ENE 17.3 mph 25.3 mph N/A   Clear
4:53 PM 59.0 °F 45.0 °F 60% 30.37 in 10.0 mi ENE 16.1 mph 21.9 mph N/A   Clear
5:53 PM 57.0 °F 44.1 °F 62% 30.37 in 10.0 mi ENE 11.5 mph - N/A   Clear
6:53 PM 55.9 °F 44.1 °F 64% 30.36 in 10.0 mi ENE 9.2 mph - N/A   Clear
7:53 PM 55.0 °F 44.1 °F 67% 30.35 in 10.0 mi ENE 8.1 mph - N/A   Clear
8:53 PM 55.9 °F 43.0 °F 62% 30.34 in 10.0 mi ENE 12.7 mph - N/A   Clear
9:53 PM 55.9 °F 45.0 °F 67% 30.34 in 10.0 mi ENE 11.5 mph - N/A   Clear
10:53 PM 55.9 °F 46.0 °F 69% 30.34 in 10.0 mi ENE 13.8 mph - N/A   Clear
11:53 PM 55.9 °F 48.0 °F 75% 30.33 in 10.0 mi ENE 10.4 mph - N/A   Clear